SBRF

Recife/Guararapes–Gilberto Freyre International Airport

Airport
ICAO code
SBRF
IATA Code
REC
Summary
ICAO Region
CARSAM
ICAO Territory
Location

Recife, Pernambuco

Serving
Recife
Elevation
33 ft
Coordinates
8° 7' 35" S , 34° 55' 22" W
KCC
Metar
SBRF 200000Z 18003KT 100V240 5000 -RA BR SCT020 BKN050 23/21 Q1015

Recife International Airport (IATA: REC, ICAO: SBRF) is the airport of Recife, Pernambuco.

Climatology

Tropical monsoon climate (Köppen climate classification Cfc)

Runways

Designator Length Width Surface Rops
18/36 3007 45 ASP Yes/Yes

Airport map

Aerial View

SKYbrary Partners:

Safety knowledge contributed by: